TimeEDT,TemperatureF,Dew PointF,Humidity,Sea Level PressureIn,VisibilityMPH,Wind Direction,Wind SpeedMPH,Gust SpeedMPH,PrecipitationIn,Events,Conditions,WindDirDegrees,DateUTC
12:53 AM,30.9,12.0,46,29.82,10.0,Variable,5.8,-,N/A,,Overcast,0,2013-04-03 04:53:00
1:53 AM,30.9,12.0,46,29.82,10.0,West,9.2,-,N/A,,Overcast,260,2013-04-03 05:53:00
2:53 AM,30.0,14.0,51,29.82,10.0,West,8.1,-,N/A,,Mostly Cloudy,260,2013-04-03 06:53:00
3:53 AM,30.0,12.9,49,29.82,10.0,Variable,3.5,-,N/A,,Clear,0,2013-04-03 07:53:00
4:53 AM,30.0,12.9,49,29.83,10.0,WSW,3.5,-,N/A,,Overcast,250,2013-04-03 08:53:00
5:53 AM,28.9,9.0,43,29.83,10.0,WSW,4.6,-,N/A,,Partly Cloudy,240,2013-04-03 09:53:00
6:53 AM,28.9,12.9,51,29.85,10.0,WSW,5.8,-,N/A,,Clear,250,2013-04-03 10:53:00
7:53 AM,30.0,12.0,47,29.86,10.0,WSW,5.8,-,N/A,,Clear,240,2013-04-03 11:53:00
8:53 AM,33.1,10.0,38,29.84,10.0,Variable,6.9,17.3,N/A,,Clear,0,2013-04-03 12:53:00
9:53 AM,35.1,8.1,33,29.84,10.0,WSW,11.5,23.0,N/A,,Clear,250,2013-04-03 13:53:00
10:53 AM,37.0,7.0,29,29.83,10.0,West,12.7,23.0,N/A,,Clear,260,2013-04-03 14:53:00
11:53 AM,39.9,7.0,26,29.82,10.0,WSW,15.0,24.2,N/A,,Clear,250,2013-04-03 15:53:00
12:53 PM,39.9,6.1,25,29.82,10.0,West,10.4,21.9,N/A,,Clear,280,2013-04-03 16:53:00
1:53 PM,42.1,6.1,23,29.82,10.0,WNW,11.5,29.9,N/A,,Clear,290,2013-04-03 17:53:00
2:53 PM,43.0,5.0,21,29.83,10.0,Variable,6.9,23.0,N/A,,Clear,0,2013-04-03 18:53:00
3:53 PM,43.0,5.0,21,29.84,10.0,NW,10.4,25.3,N/A,,Clear,310,2013-04-03 19:53:00
4:53 PM,42.1,6.1,23,29.85,10.0,WNW,12.7,23.0,N/A,,Clear,300,2013-04-03 20:53:00
5:53 PM,39.9,7.0,26,29.88,10.0,Variable,5.8,18.4,N/A,,Clear,0,2013-04-03 21:53:00
6:53 PM,39.0,10.0,30,29.91,10.0,NW,8.1,-,N/A,,Clear,310,2013-04-03 22:53:00
7:53 PM,37.0,12.0,36,29.96,10.0,Variable,5.8,-,N/A,,Clear,0,2013-04-03 23:53:00
8:53 PM,35.1,12.9,40,29.99,10.0,Variable,4.6,-,N/A,,Clear,0,2013-04-04 00:53:00
9:53 PM,35.1,15.1,44,30.02,10.0,Variable,5.8,17.3,N/A,,Clear,0,2013-04-04 01:53:00
10:53 PM,34.0,15.1,46,30.03,10.0,WNW,11.5,21.9,N/A,,Clear,290,2013-04-04 02:53:00
11:53 PM,33.1,15.1,48,30.05,10.0,WNW,8.1,-,N/A,,Clear,290,2013-04-04 03:53:00